• In Romania
  • List of Countries
  • For 7 days
  • Water Temperature
  • Satellite Maps
  • Weather Map
  • Weather Widgets
  • user-avatar
    Login

    Hourly Weather Graz

    Today, 20 February, Tuesday

    Time Temperature Precipitation Wind Pressure Humidity
    00:00 -2°C° 0.2 mm 1 mps 723 mmHg 90%
    01:00 -2°C° 0.2 mm 1 mps 723 mmHg 91%
    02:00 -2°C° 0.2 mm 1 mps 722 mmHg 91%
    03:00 -2°C° 0.2 mm 1 mps 722 mmHg 91%
    04:00 -2°C° 0.2 mm 1 mps 722 mmHg 91%
    05:00 -2°C° 0.3 mm 1 mps 721 mmHg 92%
    06:00 -2°C° 0.3 mm 1 mps 721 mmHg 92%
    07:00 -2°C° 0.3 mm 1 mps 721 mmHg 93%
    08:00 -1°C° 0.3 mm 1 mps 721 mmHg 91%
    09:00 0°C° 0.3 mm 1 mps 721 mmHg 89%
    10:00 -1°C° 0.3 mm 2 mps 721 mmHg 87%
    11:00 +1°C° 0.3 mm 2 mps 721 mmHg 86%
    12:00 +1°C° 0.3 mm 2 mps 720 mmHg 86%
    13:00 +2°C° 0.3 mm 2 mps 720 mmHg 85%
    14:00 +1°C° 0.3 mm 2 mps 720 mmHg 86%
    15:00 +1°C° 0.3 mm 2 mps 720 mmHg 87%
    16:00 +1°C° 0.3 mm 2 mps 720 mmHg 89%
    17:00 +1°C° 0.4 mm 2 mps 720 mmHg 91%
    18:00 -1°C° 0.4 mm 2 mps 720 mmHg 93%
    19:00 -2°C° 0.4 mm 2 mps 720 mmHg 95%
    20:00 -2°C° 0.4 mm 2 mps 721 mmHg 94%
    21:00 -2°C° 0.4 mm 2 mps 721 mmHg 94%
    22:00 -2°C° 0.4 mm 2 mps 721 mmHg 94%
    23:00 -2°C° 0.3 mm 2 mps 721 mmHg 93%

    Tomorrow, 21 February, Wednesday

    Time Temperature Precipitation Wind Pressure Humidity
    00:00 -2°C° 0.3 mm 2 mps 721 mmHg 93%
    01:00 -2°C° 0.3 mm 2 mps 722 mmHg 93%
    02:00 -2°C° 0.2 mm 2 mps 721 mmHg 93%
    03:00 -2°C° 0.2 mm 2 mps 721 mmHg 93%
    04:00 -2°C° 0.2 mm 2 mps 721 mmHg 92%
    05:00 -2°C° 0.1 mm 2 mps 721 mmHg 92%
    06:00 -3°C° 0.1 mm 2 mps 722 mmHg 92%
    07:00 -3°C° 0.1 mm 2 mps 722 mmHg 92%
    08:00 -2°C° 0.1 mm 2 mps 722 mmHg 89%
    09:00 -1°C° 0.1 mm 2 mps 722 mmHg 86%
    10:00 +1°C° 0.1 mm 2 mps 722 mmHg 84%
    11:00 +2°C° 0.1 mm 2 mps 722 mmHg 83%
    12:00 +2°C° 0.1 mm 2 mps 722 mmHg 82%
    13:00 +3°C° 0.1 mm 2 mps 722 mmHg 81%
    14:00 +3°C° 0.2 mm 2 mps 722 mmHg 83%
    15:00 +2°C° 0.2 mm 2 mps 721 mmHg 85%
    16:00 +2°C° 0.2 mm 2 mps 721 mmHg 87%
    17:00 +1°C° 0.2 mm 2 mps 721 mmHg 88%
    18:00 +1°C° 0.2 mm 2 mps 722 mmHg 90%
    19:00 -1°C° 0.2 mm 2 mps 722 mmHg 92%
    20:00 -1°C° 0.3 mm 2 mps 722 mmHg 92%
    21:00 -1°C° 0.3 mm 2 mps 722 mmHg 92%
    22:00 -2°C° 0.3 mm 2 mps 722 mmHg 92%
    23:00 -2°C° 0.3 mm 2 mps 722 mmHg 92%

    Day after tomorrow, 22 February, Thursday

    Time Temperature Precipitation Wind Pressure Humidity
    00:00 -2°C° 0.3 mm 2 mps 722 mmHg 92%
    01:00 -2°C° 0.3 mm 2 mps 722 mmHg 92%
    02:00 -2°C° 0.4 mm 2 mps 722 mmHg 92%
    03:00 -2°C° 0.4 mm 2 mps 721 mmHg 93%
    04:00 -2°C° 0.4 mm 2 mps 721 mmHg 93%
    05:00 -2°C° 0.4 mm 2 mps 721 mmHg 93%
    06:00 -2°C° 0.4 mm 2 mps 721 mmHg 93%
    07:00 -2°C° 0.4 mm 2 mps 721 mmHg 94%
    08:00 -2°C° 0.5 mm 2 mps 721 mmHg 93%
    09:00 -2°C° 0.5 mm 2 mps 721 mmHg 92%
    10:00 -1°C° 0.5 mm 2 mps 721 mmHg 91%
    11:00 -1°C° 0.6 mm 2 mps 721 mmHg 91%
    12:00 -1°C° 0.6 mm 2 mps 721 mmHg 91%
    13:00 -1°C° 0.6 mm 2 mps 721 mmHg 91%
    14:00 -1°C° 0.5 mm 2 mps 721 mmHg 91%
    15:00 -1°C° 0.5 mm 2 mps 721 mmHg 91%
    16:00 -1°C° 0.5 mm 2 mps 720 mmHg 91%
    17:00 -1°C° 0.3 mm 2 mps 720 mmHg 92%
    18:00 -1°C° 0.3 mm 2 mps 721 mmHg 94%
    19:00 -2°C° 0.3 mm 2 mps 721 mmHg 95%
    20:00 -2°C° 0.6 mm 2 mps 721 mmHg 95%
    21:00 -2°C° 0.6 mm 2 mps 721 mmHg 95%
    22:00 -2°C° 0.6 mm 2 mps 721 mmHg 95%
    23:00 -2°C° 0.8 mm 2 mps 721 mmHg 95%

    23 February, Friday

    Time Temperature Precipitation Wind Pressure Humidity
    00:00 -2°C° 0.8 mm 2 mps 721 mmHg 96%
    01:00 -2°C° 0.8 mm 2 mps 721 mmHg 96%
    02:00 -2°C° 0.7 mm 2 mps 721 mmHg 96%
    03:00 -2°C° 0.7 mm 2 mps 721 mmHg 96%
    04:00 -2°C° 0.7 mm 2 mps 721 mmHg 96%
    05:00 0°C° 0.4 mm 1 mps 721 mmHg 95%
    06:00 -1°C° 0.4 mm 1 mps 721 mmHg 95%
    07:00 -1°C° 0.4 mm 1 mps 721 mmHg 95%
    08:00 0°C° 0.2 mm 1 mps 722 mmHg 94%
    09:00 +1°C° 0.2 mm 1 mps 722 mmHg 93%
    10:00 +1°C° 0.2 mm 1 mps 723 mmHg 91%
    11:00 +2°C° 0.1 mm 1 mps 723 mmHg 91%
    12:00 +2°C° 0.1 mm 1 mps 723 mmHg 91%
    13:00 +3°C° 0.1 mm 1 mps 723 mmHg 91%
    14:00 +3°C° 0 mm 1 mps 723 mmHg 91%
    15:00 +2°C° 0 mm 2 mps 723 mmHg 91%
    16:00 +1°C° 0 mm 2 mps 724 mmHg 92%
    17:00 +1°C° 0 mm 2 mps 724 mmHg 93%
    18:00 +1°C° 0 mm 1 mps 724 mmHg 94%
    19:00 0°C° 0 mm 1 mps 725 mmHg 95%
    20:00 -1°C° 0 mm 1 mps 725 mmHg 95%
    21:00 -1°C° 0 mm 1 mps 725 mmHg 95%
    22:00 -2°C° 0 mm 1 mps 726 mmHg 95%
    23:00 -2°C° 0 mm 1 mps 726 mmHg 94%

    24 February, Saturday

    Time Temperature Precipitation Wind Pressure Humidity
    00:00 -3°C° 0 mm 1 mps 726 mmHg 94%
    01:00 -3°C° 0 mm 1 mps 726 mmHg 93%
    02:00 -3°C° 0 mm 1 mps 726 mmHg 93%
    03:00 -4°C° 0 mm 1 mps 726 mmHg 93%
    04:00 -4°C° 0 mm 1 mps 726 mmHg 92%
    05:00 -6°C° 0 mm 1 mps 726 mmHg 92%
    06:00 -6°C° 0 mm 1 mps 726 mmHg 91%
    07:00 -7°C° 0 mm 1 mps 726 mmHg 90%
    08:00 -4°C° 0 mm 1 mps 726 mmHg 85%
    09:00 -5°C° 0 mm 2 mps 726 mmHg 80%
    10:00 -3°C° 0 mm 2 mps 727 mmHg 75%
    11:00 -3°C° 0 mm 2 mps 726 mmHg 74%
    12:00 -2°C° 0 mm 2 mps 726 mmHg 74%
    13:00 -2°C° 0 mm 2 mps 726 mmHg 73%
    14:00 -2°C° 0 mm 2 mps 726 mmHg 75%
    15:00 -3°C° 0 mm 2 mps 725 mmHg 77%
    16:00 -3°C° 0 mm 2 mps 725 mmHg 80%
    17:00 -4°C° 0.1 mm 2 mps 725 mmHg 83%
    18:00 -6°C° 0.1 mm 2 mps 725 mmHg 87%
    19:00 -7°C° 0.1 mm 2 mps 726 mmHg 90%
    20:00 -8°C° 0.1 mm 2 mps 726 mmHg 91%
    21:00 -8°C° 0.1 mm 2 mps 726 mmHg 91%
    22:00 -9°C° 0.1 mm 2 mps 726 mmHg 91%
    23:00 -9°C° 0 mm 2 mps 726 mmHg 90%

    25 February, Sunday

    Time Temperature Precipitation Wind Pressure Humidity
    00:00 -10°C° 0 mm 2 mps 726 mmHg 90%
    01:00 -10°C° 0 mm 2 mps 726 mmHg 89%
    02:00 -12°C° 0 mm 2 mps 726 mmHg 90%
    03:00 -10°C° 0 mm 1 mps 725 mmHg 90%
    04:00 -11°C° 0 mm 1 mps 725 mmHg 90%
    05:00 -11°C° 0 mm 1 mps 725 mmHg 90%
    06:00 -11°C° 0 mm 1 mps 725 mmHg 90%
    07:00 -12°C° 0 mm 1 mps 725 mmHg 90%
    08:00 -13°C° 0 mm 2 mps 725 mmHg 86%
    09:00 -10°C° 0 mm 2 mps 725 mmHg 81%
    10:00 -9°C° 0 mm 2 mps 725 mmHg 76%
    11:00 -9°C° 0 mm 2 mps 725 mmHg 75%
    12:00 -8°C° 0 mm 2 mps 724 mmHg 74%
    13:00 -7°C° 0 mm 2 mps 724 mmHg 73%
    14:00 -8°C° 0.1 mm 2 mps 724 mmHg 74%
    15:00 -8°C° 0.1 mm 2 mps 724 mmHg 76%
    16:00 -8°C° 0.1 mm 2 mps 723 mmHg 77%
    17:00 -9°C° 0 mm 2 mps 724 mmHg 81%
    18:00 -9°C° 0 mm 2 mps 724 mmHg 84%
    19:00 -9°C° 0 mm 1 mps 724 mmHg 88%
    20:00 -9°C° 0 mm 1 mps 724 mmHg 88%
    21:00 -10°C° 0 mm 1 mps 724 mmHg 89%
    22:00 -10°C° 0 mm 1 mps 724 mmHg 89%
    23:00 -10°C° 0.1 mm 1 mps 724 mmHg 89%
    Show more